Location: Unspecified
(0.0000°N, 0.0000°E)
Time: 06:31:19
(UTC+00:00)

Vanguard 2 - Pass Details

Date: 13 December 2018
Orbit: 552 x 2939 km, 32.9° (Epoch: 15 June)

Event Time Altitude Azimuth Distance (km) Brightness Sun altitude
Rises 05:31:04 0° 293° (WNW) 6,187 - -5.3°
Exits shadow 05:33:04 - 291° (WNW) 5,773 11.3 -4.8°
Reaches altitude 10° 05:34:58 10° 289° (WNW) 5,390 11.1 -4.4°
Maximum altitude 05:51:34 56° 215° (SW) 3,313 10.7 -0.6°
Drops below altitude 10° 06:07:52 10° 140° (SE) 5,262 13.1 3.2°
Sets 06:11:40 0° 135° (SE) 6,035 13.6 4.0°
